GW0890 Weather Reports


Display with metric or nautical units.
time (UTC)temp
F
wind
direction
speed
MPH
gust
MPH
rain 1hr
in
rain 24hr
in
rain mn
in
humidity
%
barometer
mb
20260903201518 96 323 4.0 10.0 0.00 0.00 0.00 55 1013.0
20260903200034 96 65 5.0 8.0 0.00 0.00 0.00 55 1013.1
20260903194532 96 74 3.0 10.0 0.00 0.00 0.00 58 1013.2
20260903193007 96 88 2.0 6.0 0.00 0.00 0.00 58 1013.5
20260903191506 95 57 0.0 5.0 0.00 0.00 0.00 59 1013.6
20260903190003 94 225 0.0 2.0 0.00 0.00 0.00 58 1013.8
20260903184502 93 229 0.0 4.0 0.00 0.00 0.00 61 1013.9
20260903183117 91 225 2.0 6.0 0.00 0.00 0.00 73 1014.1
20260903181610 93 175 2.0 5.0 0.00 0.00 0.00 63 1014.2
20260903180053 94 200 4.0 9.0 0.00 0.00 0.00 58 1014.4
20260903174551 96 71 0.0 2.0 0.00 0.00 0.00 55 1014.5
20260903173058 97 22 2.0 6.0 0.00 0.00 0.00 54 1014.7
20260903171551 96 103 1.0 9.0 0.00 0.00 0.00 56 1014.7
20260903170042 94 79 0.0 6.0 0.00 0.00 0.00 59 1014.9
20260903164539 93 119 0.0 6.0 0.00 0.00 0.00 61 1015.0
20260903163036 92 5 2.0 8.0 0.00 0.00 0.00 61 1015.2
20260903161541 92 46 5.0 8.0 0.00 0.00 0.00 65 1015.3
20260903160131 92 65 4.0 7.0 0.00 0.00 0.00 64 1015.3
20260903154558 91 62 3.0 7.0 0.00 0.00 0.00 67 1015.3
20260903153053 90 58 2.0 5.0 0.00 0.00 0.00 69 1015.4
20260903151519 89 117 0.0 6.0 0.00 0.00 0.00 72 1015.5
20260903150017 87 323 2.0 5.0 0.00 0.00 0.00 78 1015.5
20260903144542 85 321 1.0 5.0 0.00 0.00 0.00 80 1015.5
20260903143042 83 315 0.0 3.0 0.00 0.00 0.00 84 1015.6
20260903141504 82 313 3.0 5.0 0.00 0.00 0.00 86 1015.5
20260903140101 81 304 0.0 3.0 0.00 0.00 0.00 88 1015.7
20260903134606 79 299 2.0 5.0 0.00 0.00 0.00 92 1015.6
20260903133052 78 267 1.0 5.0 0.00 0.00 0.00 96 1015.7
20260903131545 76 224 0.0 0.0 0.00 0.00 0.00 99 1015.9
20260903130044 74 224 0.0 0.0 0.00 0.00 0.00 99 1016.1
20260903124554 73 224 0.0 0.0 0.00 0.00 0.00 99 1016.1
20260903123041 72 224 0.0 0.0 0.00 0.00 0.00 99 1016.2
20260903121546 72 224 0.0 0.0 0.00 0.00 0.00 99 1016.2
20260903120037 71 224 0.0 0.0 0.00 0.00 0.00 99 1016.2
20260903114535 71 224 0.0 0.0 0.00 0.00 0.00 99 1016.0
20260903113032 70 224 0.0 0.0 0.00 0.00 0.00 99 1015.8
20260903111530 70 224 0.0 0.0 0.00 0.00 0.00 99 1015.8
20260903110028 70 224 0.0 0.0 0.00 0.00 0.00 99 1015.6
20260903104526 71 224 0.0 0.0 0.00 0.00 0.00 98 1015.4
20260903103023 71 224 0.0 0.0 0.00 0.00 0.00 99 1015.4
20260903101529 71 224 0.0 0.0 0.00 0.00 0.00 99 1015.2
20260903100025 71 224 0.0 0.0 0.00 0.00 0.00 99 1015.2
20260903094516 71 224 0.0 0.0 0.00 0.00 0.00 98 1015.1
20260903093016 71 224 0.0 0.0 0.00 0.00 0.00 98 1015.0
20260903091515 71 224 0.0 0.0 0.00 0.00 0.00 98 1015.0
20260903090014 71 224 0.0 0.0 0.00 0.00 0.00 98 1015.0
20260903084514 71 223 0.0 0.0 0.00 0.00 0.00 98 1015.0
20260903083011 72 223 0.0 0.0 0.00 0.00 0.00 98 1014.9
20260903081509 72 223 0.0 0.0 0.00 0.00 0.00 98 1014.9
20260903080008 72 223 0.0 0.0 0.00 0.00 0.00 98 1014.9
20260903074638 72 223 0.0 0.0 0.00 0.00 0.00 98 1014.9
20260903073044 72 223 0.0 0.0 0.00 0.00 0.00 98 1014.8
20260903071506 72 223 0.0 0.0 0.00 0.00 0.00 98 1014.8
20260903070006 73 223 0.0 0.0 0.00 0.00 0.00 98 1014.8
20260903064503 73 223 0.0 0.0 0.00 0.00 0.00 98 1014.9
20260903063125 73 223 0.0 0.0 0.00 0.00 0.00 98 1014.9
20260903061600 73 223 0.0 0.0 0.00 0.00 0.00 98 1015.0
20260903060059 73 223 0.0 0.0 0.00 0.00 0.00 98 1014.9
20260903054553 73 221 0.0 0.0 0.00 0.00 0.00 97 1014.8
20260903053056 74 221 0.0 0.0 0.00 0.00 0.00 97 1014.8
20260903051551 74 221 0.0 0.0 0.00 0.00 0.00 97 1014.8
20260903050050 74 221 0.0 0.0 0.00 0.00 0.00 97 1014.7
20260903044548 74 221 0.0 0.0 0.00 0.00 0.00 97 1014.6
20260903043101 74 221 0.0 0.0 0.00 0.00 0.00 97 1014.6
20260903041547 75 221 0.0 0.0 0.00 0.00 0.00 97 1014.6
20260903040047 75 221 0.0 0.0 0.00 0.00 0.00 97 1014.7
20260903034542 75 221 0.0 0.0 0.00 0.00 0.00 96 1014.7
20260903033041 75 221 0.0 0.0 0.00 0.00 0.00 96 1014.7
20260903031547 76 221 0.0 0.0 0.00 0.00 0.00 96 1014.8
20260903030041 76 221 0.0 0.0 0.00 0.00 0.00 96 1014.8
20260903024538 76 221 0.0 0.0 0.00 0.00 0.00 95 1014.9
20260903023038 76 220 0.0 2.0 0.00 0.00 0.00 95 1014.8
20260903021537 77 220 0.0 0.0 0.00 0.00 0.00 95 1014.7
20260903020045 77 221 0.0 2.0 0.00 0.00 0.00 95 1014.7
20260903014536 77 220 0.0 2.0 0.00 0.00 0.00 94 1014.8
20260903013005 78 220 0.0 2.0 0.00 0.00 0.00 93 1014.7
20260903011510 79 219 0.0 1.0 0.00 0.00 0.00 92 1014.6
20260903010038 79 219 0.0 2.0 0.00 0.00 0.00 91 1014.4
20260903004535 79 219 0.0 2.0 0.00 0.00 0.00 90 1014.3
20260903003004 80 219 1.0 4.0 0.00 0.00 0.00 89 1014.1
20260903001505 81 221 0.0 4.0 0.00 0.00 0.00 88 1014.1
20260903000040 82 225 3.0 5.0 0.00 0.00 0.00 86 1014.0
20260902234532 83 228 1.0 5.0 0.00 0.00 0.00 83 1013.9
20260902233007 85 245 2.0 5.0 0.00 0.00 0.00 78 1013.9
20260902231503 88 299 2.0 5.0 0.00 0.00 0.00 72 1014.0
20260902230105 90 304 1.0 4.0 0.00 0.00 0.00 69 1014.2
20260902224558 93 317 1.0 2.0 0.00 0.00 0.00 63 1014.2
20260902223115 93 319 1.0 5.0 0.00 0.00 0.00 62 1014.1
20260902221556 94 21 1.0 7.0 0.00 0.00 0.00 59 1014.1
20260902220054 93 316 1.0 8.0 0.00 0.00 0.00 59 1014.1
20260902214554 94 332 3.0 9.0 0.00 0.00 0.00 56 1014.2
20260902213052 95 306 1.0 5.0 0.00 0.00 0.00 55 1014.2
20260902211551 95 41 2.0 5.0 0.00 0.00 0.00 54 1014.2
20260902210048 95 40 5.0 8.0 0.00 0.00 0.00 54 1014.3
20260902204610 95 26 6.0 9.0 0.00 0.00 0.00 54 1014.5
20260902203044 95 30 4.0 8.0 0.00 0.00 0.00 55 1014.6